Time,TemperatureF,DewpointF,PressureIn,WindDirection,WindDirectionDegrees,WindSpeedMPH,WindSpeedGustMPH,Humidity,HourlyPrecipIn,Conditions,Clouds,dailyrainin,SolarRadiationWatts/m^2,SoftwareType,DateUTC
2013-06-20 00:02:00,54.8,49.7,29.95,SSE,157,0.0,6.0,83,0.00,,---,0.00,0.00,VWS V14.01,2013-06-20 07:02:00,
2013-06-20 00:07:00,54.8,49.4,29.95,SSW,201,0.0,0.0,82,0.00,,---,0.00,0.00,VWS V14.01,2013-06-20 07:07:00,
2013-06-20 00:12:00,54.7,49.3,29.95,ESE,113,0.0,2.0,82,0.00,,---,0.00,0.00,VWS V14.01,2013-06-20 07:12:00,
2013-06-20 00:17:00,54.6,49.2,29.95,South,171,1.0,2.0,82,0.00,,---,0.00,0.00,VWS V14.01,2013-06-20 07:17:00,
2013-06-20 00:22:00,54.6,48.9,29.95,West,269,0.0,3.0,81,0.00,,---,0.00,0.00,VWS V14.01,2013-06-20 07:22:00,
2013-06-20 00:27:00,54.5,48.8,29.95,SSW,200,0.0,5.0,81,0.00,,---,0.00,0.00,VWS V14.01,2013-06-20 07:27:00,
2013-06-20 00:32:00,54.5,48.8,29.95,SSE,161,1.0,3.0,81,0.00,,---,0.00,0.00,VWS V14.01,2013-06-20 07:32:00,
2013-06-20 00:37:00,54.5,49.1,29.95,South,173,0.0,2.0,82,0.00,,---,0.00,0.00,VWS V14.01,2013-06-20 07:37:00,
2013-06-20 00:42:00,54.5,48.8,29.95,South,173,0.0,2.0,81,0.00,,---,0.00,0.00,VWS V14.01,2013-06-20 07:42:00,
2013-06-20 00:47:00,54.5,49.1,29.95,SSE,166,0.0,2.0,82,0.00,,---,0.00,0.00,VWS V14.01,2013-06-20 07:47:00,
2013-06-20 00:52:00,54.5,48.8,29.95,SW,233,0.0,2.0,81,0.00,,---,0.00,0.00,VWS V14.01,2013-06-20 07:52:00,
2013-06-20 00:57:00,54.5,48.8,29.95,West,272,0.0,3.0,81,0.00,,---,0.00,0.00,VWS V14.01,2013-06-20 07:57:00,
2013-06-20 01:02:00,54.5,48.8,29.95,SSE,150,0.0,5.0,81,0.00,,---,0.00,0.00,VWS V14.01,2013-06-20 08:02:00,
2013-06-20 01:07:00,54.5,48.8,29.95,SSE,151,0.0,2.0,81,0.00,,---,0.00,0.00,VWS V14.01,2013-06-20 08:07:00,
2013-06-20 01:12:00,54.5,49.1,29.95,SE,134,0.0,1.0,82,0.00,,---,0.00,0.00,VWS V14.01,2013-06-20 08:12:00,
2013-06-20 01:17:00,54.5,48.8,29.95,WSW,254,0.0,4.0,81,0.00,,---,0.00,0.00,VWS V14.01,2013-06-20 08:17:00,
2013-06-20 01:22:00,54.4,48.7,29.95,SSE,154,0.0,4.0,81,0.00,,---,0.00,0.00,VWS V14.01,2013-06-20 08:22:00,
2013-06-20 01:27:00,54.4,48.7,29.95,SSE,153,0.0,2.0,81,0.00,,---,0.00,0.00,VWS V14.01,2013-06-20 08:27:00,
2013-06-20 01:32:00,54.4,48.7,29.95,SSW,212,0.0,5.0,81,0.00,,---,0.00,0.00,VWS V14.01,2013-06-20 08:32:00,
2013-06-20 01:37:00,54.5,48.8,29.95,SSW,207,2.0,5.0,81,0.00,,---,0.00,0.00,VWS V14.01,2013-06-20 08:37:00,
2013-06-20 01:42:00,54.5,48.8,29.95,ESE,113,4.0,4.0,81,0.00,,---,0.00,0.00,VWS V14.01,2013-06-20 08:42:00,
2013-06-20 01:47:00,54.5,48.8,29.94,SW,217,2.0,7.0,81,0.00,,---,0.00,0.00,VWS V14.01,2013-06-20 08:47:00,
2013-06-20 01:52:00,54.5,48.8,29.94,SSW,205,0.0,5.0,81,0.00,,---,0.00,0.00,VWS V14.01,2013-06-20 08:52:00,
2013-06-20 01:57:00,54.5,49.1,29.94,South,174,1.0,5.0,82,0.00,,---,0.00,0.00,VWS V14.01,2013-06-20 08:57:00,
2013-06-20 02:02:00,54.5,49.1,29.94,NW,321,2.0,4.0,82,0.00,,---,0.00,0.00,VWS V14.01,2013-06-20 09:02:00,
2013-06-20 02:07:00,54.5,49.1,29.94,SSW,194,2.0,5.0,82,0.00,,---,0.00,0.00,VWS V14.01,2013-06-20 09:07:00,
2013-06-20 02:12:00,54.5,49.1,29.94,WSW,240,0.0,5.0,82,0.00,,---,0.00,0.00,VWS V14.01,2013-06-20 09:12:00,
2013-06-20 02:18:00,54.4,49.3,29.93,WSW,237,0.0,8.0,83,0.00,,---,0.00,0.00,VWS V14.01,2013-06-20 09:18:00,
2013-06-20 02:23:00,54.4,49.3,29.93,SSW,192,2.0,8.0,83,0.00,,---,0.00,0.00,VWS V14.01,2013-06-20 09:23:00,
2013-06-20 02:28:00,54.3,49.3,29.93,SW,223,3.0,7.0,83,0.00,,---,0.00,0.00,VWS V14.01,2013-06-20 09:28:00,
2013-06-20 02:33:00,54.2,49.2,29.93,SSW,206,2.0,7.0,83,0.00,,---,0.00,0.00,VWS V14.01,2013-06-20 09:33:00,
2013-06-20 02:38:00,54.2,49.2,29.93,SSW,205,0.0,6.0,83,0.00,,---,0.00,0.00,VWS V14.01,2013-06-20 09:38:00,
2013-06-20 02:43:00,54.1,49.4,29.93,SW,222,2.0,4.0,84,0.00,,---,0.00,0.00,VWS V14.01,2013-06-20 09:43:00,
2013-06-20 02:48:00,54.1,49.1,29.93,WSW,256,0.0,3.0,83,0.00,,---,0.00,0.00,VWS V14.01,2013-06-20 09:48:00,
2013-06-20 02:53:00,54.0,49.3,29.93,SE,132,0.0,5.0,84,0.00,,---,0.00,0.00,VWS V14.01,2013-06-20 09:53:00,
2013-06-20 02:58:00,54.0,49.3,29.93,WSW,254,2.0,6.0,84,0.00,,---,0.00,0.00,VWS V14.01,2013-06-20 09:58:00,
2013-06-20 03:03:00,54.0,49.3,29.93,ESE,109,1.0,6.0,84,0.00,,---,0.00,0.00,VWS V14.01,2013-06-20 10:03:00,
2013-06-20 03:08:00,53.9,48.9,29.92,South,181,0.0,4.0,83,0.00,,---,0.00,0.00,VWS V14.01,2013-06-20 10:08:00,
2013-06-20 03:13:00,53.9,48.9,29.92,SSE,163,0.0,5.0,83,0.00,,---,0.00,0.00,VWS V14.01,2013-06-20 10:13:00,
2013-06-20 03:18:00,53.9,49.2,29.92,SSE,163,0.0,5.0,84,0.00,,---,0.00,0.00,VWS V14.01,2013-06-20 10:18:00,
2013-06-20 03:23:00,53.9,49.2,29.92,SSE,154,5.0,5.0,84,0.00,,---,0.00,0.00,VWS V14.01,2013-06-20 10:23:00,
2013-06-20 03:28:00,53.9,49.2,29.92,ESE,114,0.0,5.0,84,0.00,,---,0.00,0.00,VWS V14.01,2013-06-20 10:28:00,
2013-06-20 03:33:00,53.8,49.1,29.92,WSW,242,2.0,9.0,84,0.00,,---,0.00,0.00,VWS V14.01,2013-06-20 10:33:00,
2013-06-20 03:38:00,53.8,49.1,29.92,SSW,194,1.0,9.0,84,0.00,,---,0.00,0.00,VWS V14.01,2013-06-20 10:38:00,
2013-06-20 03:43:00,53.8,49.4,29.93,SSE,165,2.0,6.0,85,0.01,,---,0.01,0.00,VWS V14.01,2013-06-20 10:43:00,
2013-06-20 03:48:00,53.7,49.6,29.92,SSW,204,0.0,6.0,86,0.01,,---,0.01,0.00,VWS V14.01,2013-06-20 10:48:00,
2013-06-20 03:53:00,53.5,49.7,29.92,SSE,150,0.0,6.0,87,0.01,,---,0.01,0.00,VWS V14.01,2013-06-20 10:53:00,
2013-06-20 03:58:00,53.3,49.5,29.92,SSE,150,0.0,4.0,87,0.01,,---,0.01,0.00,VWS V14.01,2013-06-20 10:58:00,
2013-06-20 04:03:00,53.2,49.7,29.92,South,186,0.0,3.0,88,0.01,,---,0.01,0.00,VWS V14.01,2013-06-20 11:03:00,
2013-06-20 04:08:00,53.0,49.5,29.92,ESE,117,0.0,4.0,88,0.01,,---,0.01,0.00,VWS V14.01,2013-06-20 11:08:00,
2013-06-20 04:13:00,52.9,49.5,29.92,SSW,196,0.0,5.0,88,0.01,,---,0.01,0.00,VWS V14.01,2013-06-20 11:13:00,
2013-06-20 04:18:00,52.8,49.3,29.92,SW,225,0.0,5.0,88,0.01,,---,0.01,0.00,VWS V14.01,2013-06-20 11:18:00,
2013-06-20 04:23:00,52.8,49.7,29.92,SSW,213,0.0,4.0,89,0.01,,---,0.01,0.00,VWS V14.01,2013-06-20 11:23:00,
2013-06-20 04:28:00,52.7,49.5,29.92,SW,220,0.0,1.0,89,0.01,,---,0.01,0.00,VWS V14.01,2013-06-20 11:28:00,
2013-06-20 04:33:00,52.8,49.7,29.92,WSW,237,0.0,3.0,89,0.02,,---,0.02,0.00,VWS V14.01,2013-06-20 11:33:00,
2013-06-20 04:38:00,52.7,49.5,29.92,North,360,2.0,6.0,89,0.02,,---,0.02,0.00,VWS V14.01,2013-06-20 11:38:00,
2013-06-20 04:43:00,52.7,49.8,29.92,SSE,155,0.0,5.0,90,0.03,,---,0.03,0.00,VWS V14.01,2013-06-20 11:43:00,
2013-06-20 04:48:00,52.7,49.8,29.92,SE,127,4.0,5.0,90,0.02,,---,0.03,0.00,VWS V14.01,2013-06-20 11:48:00,
2013-06-20 04:53:00,52.6,49.5,29.92,SSE,168,1.0,5.0,89,0.03,,---,0.04,0.00,VWS V14.01,2013-06-20 11:53:00,
2013-06-20 04:58:00,52.5,50.0,29.92,East,98,1.0,4.0,91,0.04,,---,0.05,0.00,VWS V14.01,2013-06-20 11:58:00,
2013-06-20 05:03:00,52.4,49.8,29.92,ENE,78,0.0,4.0,91,0.05,,---,0.06,0.00,VWS V14.01,2013-06-20 12:03:00,
2013-06-20 05:08:00,52.3,49.8,29.92,SE,142,1.0,4.0,91,0.05,,---,0.06,0.00,VWS V14.01,2013-06-20 12:08:00,
2013-06-20 05:13:00,52.2,49.7,29.92,SE,143,0.0,4.0,91,0.06,,---,0.07,0.00,VWS V14.01,2013-06-20 12:13:00,
2013-06-20 05:18:00,52.1,49.8,29.92,East,84,0.0,3.0,92,0.06,,---,0.07,0.00,VWS V14.01,2013-06-20 12:18:00,
2013-06-20 05:23:00,52.1,49.8,29.92,WSW,256,0.0,3.0,92,0.06,,---,0.07,0.00,VWS V14.01,2013-06-20 12:23:00,
2013-06-20 05:28:00,52.0,49.8,29.92,East,100,0.0,3.0,92,0.07,,---,0.08,0.00,VWS V14.01,2013-06-20 12:28:00,
2013-06-20 05:33:00,51.9,49.7,29.92,South,180,0.0,2.0,92,0.07,,---,0.09,0.00,VWS V14.01,2013-06-20 12:33:00,
2013-06-20 05:38:00,51.9,49.7,29.92,SW,226,0.0,4.0,92,0.07,,---,0.09,0.00,VWS V14.01,2013-06-20 12:38:00,
2013-06-20 05:43:00,51.8,49.5,29.92,ENE,75,0.0,4.0,92,0.07,,---,0.10,0.00,VWS V14.01,2013-06-20 12:43:00,
2013-06-20 05:48:00,51.8,49.5,29.92,SSE,165,0.0,4.0,92,0.07,,---,0.10,0.00,VWS V14.01,2013-06-20 12:48:00,
2013-06-20 05:53:00,51.8,49.5,29.92,SW,215,0.0,6.0,92,0.07,,---,0.11,0.00,VWS V14.01,2013-06-20 12:53:00,
2013-06-20 05:58:00,51.7,49.5,29.92,South,175,0.0,5.0,92,0.06,,---,0.11,0.00,VWS V14.01,2013-06-20 12:58:00,
2013-06-20 06:03:00,51.7,49.5,29.91,SE,140,0.0,6.0,92,0.06,,---,0.12,0.00,VWS V14.01,2013-06-20 13:03:00,
2013-06-20 06:08:00,51.7,49.5,29.91,South,190,0.0,6.0,92,0.06,,---,0.12,5.00,VWS V14.01,2013-06-20 13:08:00,
2013-06-20 06:13:00,51.6,49.4,29.91,South,170,0.0,5.0,92,0.06,,---,0.13,5.00,VWS V14.01,2013-06-20 13:13:00,
2013-06-20 06:18:00,51.6,49.7,29.91,WNW,289,1.0,5.0,93,0.06,,---,0.13,9.00,VWS V14.01,2013-06-20 13:18:00,
2013-06-20 06:23:00,51.5,49.5,29.91,WSW,246,1.0,5.0,93,0.06,,---,0.13,5.00,VWS V14.01,2013-06-20 13:23:00,
2013-06-20 06:28:00,51.5,49.5,29.91,SW,227,1.0,5.0,93,0.06,,---,0.14,7.00,VWS V14.01,2013-06-20 13:28:00,
2013-06-20 06:33:00,51.5,49.5,29.91,South,189,0.0,5.0,93,0.05,,---,0.14,7.00,VWS V14.01,2013-06-20 13:33:00,
2013-06-20 06:38:00,51.5,49.5,29.91,SW,217,3.0,6.0,93,0.06,,---,0.15,5.00,VWS V14.01,2013-06-20 13:38:00,
2013-06-20 06:43:00,51.4,49.5,29.91,WSW,240,1.0,3.0,93,0.05,,---,0.15,7.00,VWS V14.01,2013-06-20 13:43:00,
2013-06-20 06:48:00,51.5,49.5,29.91,South,188,1.0,4.0,93,0.05,,---,0.15,9.00,VWS V14.01,2013-06-20 13:48:00,
2013-06-20 06:53:00,51.4,49.5,29.91,NNE,17,0.0,4.0,93,0.05,,---,0.16,12.00,VWS V14.01,2013-06-20 13:53:00,
2013-06-20 06:58:00,51.4,49.7,29.91,SE,130,0.0,4.0,94,0.05,,---,0.16,19.00,VWS V14.01,2013-06-20 13:58:00,
2013-06-20 07:03:00,51.4,49.7,29.90,South,186,2.0,4.0,94,0.05,,---,0.17,21.00,VWS V14.01,2013-06-20 14:03:00,
2013-06-20 07:08:00,51.5,49.8,29.90,SSW,208,0.0,4.0,94,0.05,,---,0.17,19.00,VWS V14.01,2013-06-20 14:08:00,
2013-06-20 07:13:00,51.5,49.8,29.90,WSW,239,0.0,4.0,94,0.04,,---,0.17,26.00,VWS V14.01,2013-06-20 14:13:00,
2013-06-20 07:18:00,51.6,49.9,29.90,North,5,0.0,4.0,94,0.05,,---,0.18,21.00,VWS V14.01,2013-06-20 14:18:00,
2013-06-20 07:23:00,51.6,49.9,29.90,WNW,301,0.0,6.0,94,0.05,,---,0.18,28.00,VWS V14.01,2013-06-20 14:23:00,
2013-06-20 07:28:00,51.6,49.9,29.91,WNW,300,0.0,6.0,94,0.04,,---,0.18,21.00,VWS V14.01,2013-06-20 14:28:00,
2013-06-20 07:33:00,51.7,50.0,29.90,WNW,300,0.0,1.0,94,0.04,,---,0.18,21.00,VWS V14.01,2013-06-20 14:33:00,
2013-06-20 07:38:00,51.8,50.1,29.91,WSW,257,0.0,2.0,94,0.03,,---,0.18,25.00,VWS V14.01,2013-06-20 14:38:00,
2013-06-20 07:43:00,51.9,50.5,29.91,SSW,211,0.0,2.0,95,0.03,,---,0.18,19.00,VWS V14.01,2013-06-20 14:43:00,
2013-06-20 07:48:00,51.9,50.2,29.90,SW,219,2.0,3.0,94,0.04,,---,0.19,35.00,VWS V14.01,2013-06-20 14:48:00,
2013-06-20 07:53:00,51.8,50.1,29.90,SW,219,0.0,3.0,94,0.03,,---,0.19,33.00,VWS V14.01,2013-06-20 14:53:00,
2013-06-20 07:58:00,51.9,50.5,29.90,SW,219,0.0,1.0,95,0.03,,---,0.19,44.00,VWS V14.01,2013-06-20 14:58:00,
2013-06-20 08:03:00,52.0,50.3,29.90,SW,223,1.0,4.0,94,0.02,,---,0.19,49.00,VWS V14.01,2013-06-20 15:03:00,
2013-06-20 08:08:00,52.1,50.4,29.90,SSW,203,0.0,4.0,94,0.02,,---,0.19,56.00,VWS V14.01,2013-06-20 15:08:00,
2013-06-20 08:13:00,52.3,50.6,29.90,South,186,0.0,3.0,94,0.02,,---,0.19,58.00,VWS V14.01,2013-06-20 15:13:00,
2013-06-20 08:18:00,52.4,51.0,29.90,South,186,0.0,1.0,95,0.01,,---,0.19,53.00,VWS V14.01,2013-06-20 15:18:00,
2013-06-20 08:23:00,52.4,51.0,29.90,South,184,0.0,1.0,95,0.02,,---,0.20,69.00,VWS V14.01,2013-06-20 15:23:00,
2013-06-20 08:28:00,52.4,50.7,29.90,SW,225,0.0,6.0,94,0.02,,---,0.20,77.00,VWS V14.01,2013-06-20 15:28:00,
2013-06-20 08:33:00,52.6,51.2,29.90,SW,233,1.0,5.0,95,0.02,,---,0.20,62.00,VWS V14.01,2013-06-20 15:33:00,
2013-06-20 08:39:00,52.7,51.0,29.90,WSW,247,0.0,5.0,94,0.02,,---,0.20,69.00,VWS V14.01,2013-06-20 15:39:00,
2013-06-20 08:44:00,52.7,51.0,29.90,WSW,247,0.0,2.0,94,0.02,,---,0.20,69.00,VWS V14.01,2013-06-20 15:44:00,
2013-06-20 08:49:00,52.9,51.2,29.90,SW,215,0.0,0.0,94,0.03,,---,0.21,60.00,VWS V14.01,2013-06-20 15:49:00,
2013-06-20 08:54:00,52.9,51.2,29.90,SSW,211,1.0,1.0,94,0.02,,---,0.21,77.00,VWS V14.01,2013-06-20 15:54:00,
2013-06-20 08:59:00,52.9,51.2,29.91,SSW,211,0.0,2.0,94,0.02,,---,0.21,74.00,VWS V14.01,2013-06-20 15:59:00,
2013-06-20 09:04:00,53.0,51.3,29.90,ESE,113,4.0,5.0,94,0.02,,---,0.21,95.00,VWS V14.01,2013-06-20 16:04:00,
2013-06-20 09:09:00,53.0,51.3,29.91,ESE,113,0.0,5.0,94,0.02,,---,0.21,90.00,VWS V14.01,2013-06-20 16:09:00,
2013-06-20 09:14:00,53.1,51.4,29.90,ESE,113,0.0,2.0,94,0.02,,---,0.21,91.00,VWS V14.01,2013-06-20 16:14:00,
2013-06-20 09:19:00,53.3,51.9,29.90,SE,125,0.0,2.0,95,0.02,,---,0.21,98.00,VWS V14.01,2013-06-20 16:19:00,
2013-06-20 09:24:00,53.4,51.7,29.90,SE,125,0.0,2.0,94,0.01,,---,0.21,90.00,VWS V14.01,2013-06-20 16:24:00,
2013-06-20 09:29:00,53.5,51.8,29.90,SW,232,1.0,4.0,94,0.02,,---,0.22,86.00,VWS V14.01,2013-06-20 16:29:00,
2013-06-20 09:34:00,53.6,51.9,29.90,WSW,252,0.0,5.0,94,0.02,,---,0.22,91.00,VWS V14.01,2013-06-20 16:34:00,
2013-06-20 09:39:00,53.5,51.8,29.90,West,266,4.0,5.0,94,0.02,,---,0.22,83.00,VWS V14.01,2013-06-20 16:39:00,
2013-06-20 09:44:00,53.5,51.8,29.90,SE,142,1.0,5.0,94,0.02,,---,0.22,84.00,VWS V14.01,2013-06-20 16:44:00,
2013-06-20 09:49:00,53.5,51.8,29.90,SE,136,0.0,6.0,94,0.01,,---,0.22,62.00,VWS V14.01,2013-06-20 16:49:00,
2013-06-20 09:54:00,53.5,51.8,29.90,South,169,0.0,3.0,94,0.01,,---,0.22,72.00,VWS V14.01,2013-06-20 16:54:00,
2013-06-20 09:59:00,53.6,51.9,29.90,South,177,4.0,4.0,94,0.01,,---,0.22,69.00,VWS V14.01,2013-06-20 16:59:00,
2013-06-20 10:04:00,53.5,51.8,29.90,ENE,61,0.0,4.0,94,0.01,,---,0.22,93.00,VWS V14.01,2013-06-20 17:04:00,
2013-06-20 10:09:00,53.7,52.0,29.90,ENE,61,0.0,4.0,94,0.01,,---,0.22,104.00,VWS V14.01,2013-06-20 17:09:00,
2013-06-20 10:14:00,53.8,52.1,29.90,ENE,61,0.0,2.0,94,0.01,,---,0.22,104.00,VWS V14.01,2013-06-20 17:14:00,
2013-06-20 10:19:00,54.0,52.3,29.90,ENE,61,0.0,1.0,94,0.01,,---,0.22,109.00,VWS V14.01,2013-06-20 17:19:00,
2013-06-20 10:24:00,54.2,52.5,29.90,West,267,0.0,2.0,94,0.01,,---,0.22,107.00,VWS V14.01,2013-06-20 17:24:00,
2013-06-20 10:29:00,54.3,52.3,29.90,East,80,0.0,2.0,93,0.00,,---,0.22,114.00,VWS V14.01,2013-06-20 17:29:00,
2013-06-20 10:34:00,54.5,52.8,29.90,SE,146,2.0,4.0,94,0.01,,---,0.23,125.00,VWS V14.01,2013-06-20 17:34:00,
2013-06-20 10:39:00,54.5,52.5,29.90,SW,232,2.0,4.0,93,0.01,,---,0.23,121.00,VWS V14.01,2013-06-20 17:39:00,
2013-06-20 10:44:00,54.6,52.6,29.90,SW,225,0.0,3.0,93,0.01,,---,0.23,116.00,VWS V14.01,2013-06-20 17:44:00,
2013-06-20 10:49:00,54.7,52.7,29.90,ESE,112,0.0,5.0,93,0.01,,---,0.23,118.00,VWS V14.01,2013-06-20 17:49:00,
2013-06-20 10:54:00,54.8,52.2,29.90,West,264,0.0,5.0,91,0.01,,---,0.23,127.00,VWS V14.01,2013-06-20 17:54:00,
2013-06-20 10:59:00,55.0,52.7,29.89,West,264,0.0,2.0,92,0.01,,---,0.23,130.00,VWS V14.01,2013-06-20 17:59:00,
2013-06-20 11:04:00,55.2,52.9,29.90,West,264,0.0,0.0,92,0.01,,---,0.23,127.00,VWS V14.01,2013-06-20 18:04:00,
2013-06-20 11:09:00,55.4,53.1,29.90,West,264,0.0,0.0,92,0.01,,---,0.23,127.00,VWS V14.01,2013-06-20 18:09:00,
2013-06-20 11:14:00,55.5,52.9,29.90,West,259,0.0,0.0,91,0.01,,---,0.23,141.00,VWS V14.01,2013-06-20 18:14:00,
2013-06-20 11:19:00,55.7,53.4,29.90,South,171,0.0,1.0,92,0.01,,---,0.23,130.00,VWS V14.01,2013-06-20 18:19:00,
2013-06-20 11:24:00,55.8,53.2,29.90,South,173,0.0,2.0,91,0.01,,---,0.23,107.00,VWS V14.01,2013-06-20 18:24:00,
2013-06-20 11:29:00,55.9,53.3,29.90,East,84,0.0,2.0,91,0.01,,---,0.23,109.00,VWS V14.01,2013-06-20 18:29:00,
2013-06-20 11:34:00,56.0,53.7,29.90,SSE,167,2.0,2.0,92,0.00,,---,0.23,120.00,VWS V14.01,2013-06-20 18:34:00,
2013-06-20 11:39:00,56.0,53.4,29.90,SW,223,0.0,3.0,91,0.01,,---,0.24,141.00,VWS V14.01,2013-06-20 18:39:00,
2013-06-20 11:44:00,56.0,53.1,29.90,SE,129,0.0,4.0,90,0.01,,---,0.24,149.00,VWS V14.01,2013-06-20 18:44:00,
2013-06-20 11:49:00,56.2,53.9,29.90,SW,221,0.0,4.0,92,0.01,,---,0.24,151.00,VWS V14.01,2013-06-20 18:49:00,
2013-06-20 11:54:00,56.4,53.8,29.90,ESE,120,0.0,7.0,91,0.01,,---,0.24,155.00,VWS V14.01,2013-06-20 18:54:00,
2013-06-20 11:59:00,56.4,53.8,29.90,SSW,206,2.0,7.0,91,0.01,,---,0.24,149.00,VWS V14.01,2013-06-20 18:59:00,
2013-06-20 12:04:00,56.2,53.3,29.90,SW,236,1.0,5.0,90,0.01,,---,0.24,162.00,VWS V14.01,2013-06-20 19:04:00,
2013-06-20 12:09:00,56.1,52.9,29.90,South,186,2.0,5.0,89,0.01,,---,0.24,171.00,VWS V14.01,2013-06-20 19:09:00,
2013-06-20 12:14:00,56.0,52.8,29.90,SSE,148,0.0,7.0,89,0.01,,---,0.24,176.00,VWS V14.01,2013-06-20 19:14:00,
2013-06-20 12:19:00,56.0,52.8,29.90,SSE,157,1.0,6.0,89,0.01,,---,0.24,193.00,VWS V14.01,2013-06-20 19:19:00,
2013-06-20 12:24:00,56.1,52.9,29.90,NNW,333,0.0,4.0,89,0.01,,---,0.24,190.00,VWS V14.01,2013-06-20 19:24:00,
2013-06-20 12:29:00,56.3,53.1,29.90,West,279,1.0,7.0,89,0.02,,---,0.25,197.00,VWS V14.01,2013-06-20 19:29:00,
2013-06-20 12:34:00,56.5,53.6,29.91,SSW,194,0.0,7.0,90,0.02,,---,0.25,221.00,VWS V14.01,2013-06-20 19:34:00,
2013-06-20 12:39:00,56.7,54.1,29.91,SW,219,0.0,6.0,91,0.01,,---,0.25,223.00,VWS V14.01,2013-06-20 19:39:00,
2013-06-20 12:44:00,56.9,53.7,29.91,SSW,207,0.0,6.0,89,0.01,,---,0.25,225.00,VWS V14.01,2013-06-20 19:44:00,
2013-06-20 12:49:00,56.9,53.7,29.91,South,191,0.0,4.0,89,0.02,,---,0.26,223.00,VWS V14.01,2013-06-20 19:49:00,
2013-06-20 12:54:00,57.1,53.9,29.91,SSE,148,0.0,5.0,89,0.02,,---,0.26,206.00,VWS V14.01,2013-06-20 19:54:00,
2013-06-20 12:59:00,57.0,53.8,29.91,ESE,105,4.0,6.0,89,0.02,,---,0.26,183.00,VWS V14.01,2013-06-20 19:59:00,
2013-06-20 13:04:00,57.0,53.5,29.91,SE,142,0.0,4.0,88,0.02,,---,0.26,172.00,VWS V14.01,2013-06-20 20:04:00,
2013-06-20 13:09:00,56.9,53.4,29.91,NE,48,0.0,4.0,88,0.02,,---,0.26,132.00,VWS V14.01,2013-06-20 20:09:00,
2013-06-20 13:14:00,56.8,53.0,29.91,South,173,1.0,6.0,87,0.02,,---,0.26,128.00,VWS V14.01,2013-06-20 20:14:00,
2013-06-20 13:19:00,56.7,52.6,29.91,East,100,6.0,9.0,86,0.03,,---,0.27,142.00,VWS V14.01,2013-06-20 20:19:00,
2013-06-20 13:24:00,56.6,53.1,29.91,SSW,198,0.0,9.0,88,0.03,,---,0.27,134.00,VWS V14.01,2013-06-20 20:24:00,
2013-06-20 13:29:00,56.6,53.1,29.91,SSE,158,2.0,5.0,88,0.02,,---,0.27,134.00,VWS V14.01,2013-06-20 20:29:00,
2013-06-20 13:34:00,56.6,53.1,29.91,SW,217,1.0,6.0,88,0.02,,---,0.27,144.00,VWS V14.01,2013-06-20 20:34:00,
2013-06-20 13:39:00,56.6,53.7,29.91,SSE,154,1.0,6.0,90,0.02,,---,0.27,142.00,VWS V14.01,2013-06-20 20:39:00,
2013-06-20 13:44:00,56.5,53.3,29.91,ESE,111,4.0,5.0,89,0.02,,---,0.27,134.00,VWS V14.01,2013-06-20 20:44:00,
2013-06-20 13:49:00,56.4,52.9,29.91,SE,127,6.0,10.0,88,0.01,,---,0.27,125.00,VWS V14.01,2013-06-20 20:49:00,
2013-06-20 13:54:00,56.3,52.8,29.91,South,176,1.0,6.0,88,0.02,,---,0.28,123.00,VWS V14.01,2013-06-20 20:54:00,
2013-06-20 13:59:00,56.3,52.8,29.91,SSW,199,0.0,5.0,88,0.02,,---,0.28,123.00,VWS V14.01,2013-06-20 20:59:00,
2013-06-20 14:04:00,56.2,52.7,29.91,SSE,155,2.0,5.0,88,0.02,,---,0.28,118.00,VWS V14.01,2013-06-20 21:04:00,
2013-06-20 14:09:00,56.1,52.9,29.91,SW,234,2.0,5.0,89,0.02,,---,0.28,114.00,VWS V14.01,2013-06-20 21:09:00,
2013-06-20 14:14:00,56.0,52.5,29.92,South,179,1.0,7.0,88,0.02,,---,0.28,111.00,VWS V14.01,2013-06-20 21:14:00,
2013-06-20 14:19:00,56.0,52.5,29.92,South,175,1.0,7.0,88,0.01,,---,0.28,116.00,VWS V14.01,2013-06-20 21:19:00,
2013-06-20 14:24:00,56.0,52.8,29.92,SW,225,0.0,5.0,89,0.01,,---,0.28,125.00,VWS V14.01,2013-06-20 21:24:00,
2013-06-20 14:29:00,55.9,52.4,29.92,NW,314,3.0,8.0,88,0.02,,---,0.29,120.00,VWS V14.01,2013-06-20 21:29:00,
2013-06-20 14:34:00,55.8,52.6,29.92,SW,228,0.0,5.0,89,0.02,,---,0.29,121.00,VWS V14.01,2013-06-20 21:34:00,
2013-06-20 14:39:00,55.8,52.6,29.92,SE,146,1.0,5.0,89,0.02,,---,0.29,113.00,VWS V14.01,2013-06-20 21:39:00,
2013-06-20 14:44:00,55.8,52.3,29.92,South,185,0.0,6.0,88,0.02,,---,0.29,90.00,VWS V14.01,2013-06-20 21:44:00,
2013-06-20 14:49:00,55.7,52.5,29.92,ENE,58,0.0,7.0,89,0.03,,---,0.30,74.00,VWS V14.01,2013-06-20 21:49:00,
2013-06-20 14:54:00,55.7,52.8,29.92,SE,142,2.0,3.0,90,0.02,,---,0.30,109.00,VWS V14.01,2013-06-20 21:54:00,
2013-06-20 14:59:00,55.6,52.4,29.92,East,80,0.0,4.0,89,0.02,,---,0.30,90.00,VWS V14.01,2013-06-20 21:59:00,
2013-06-20 15:04:00,55.7,52.8,29.92,WSW,250,3.0,4.0,90,0.02,,---,0.30,118.00,VWS V14.01,2013-06-20 22:04:00,
2013-06-20 15:09:00,55.7,53.1,29.92,SSW,205,5.0,5.0,91,0.02,,---,0.30,123.00,VWS V14.01,2013-06-20 22:09:00,
2013-06-20 15:14:00,55.7,53.1,29.92,South,191,0.0,9.0,91,0.02,,---,0.30,116.00,VWS V14.01,2013-06-20 22:14:00,
2013-06-20 15:19:00,55.8,53.2,29.92,South,176,0.0,7.0,91,0.02,,---,0.30,125.00,VWS V14.01,2013-06-20 22:19:00,
2013-06-20 15:24:00,55.9,53.0,29.93,South,180,0.0,7.0,90,0.02,,---,0.30,118.00,VWS V14.01,2013-06-20 22:24:00,
2013-06-20 15:29:00,56.0,53.4,29.93,East,84,0.0,5.0,91,0.02,,---,0.31,113.00,VWS V14.01,2013-06-20 22:29:00,
2013-06-20 15:34:00,56.0,53.1,29.93,East,85,1.0,6.0,90,0.02,,---,0.31,114.00,VWS V14.01,2013-06-20 22:34:00,
2013-06-20 15:39:00,56.1,53.2,29.93,SE,134,1.0,8.0,90,0.02,,---,0.31,100.00,VWS V14.01,2013-06-20 22:39:00,
2013-06-20 15:44:00,56.0,53.1,29.93,SE,126,1.0,8.0,90,0.02,,---,0.31,91.00,VWS V14.01,2013-06-20 22:44:00,
2013-06-20 15:50:00,55.9,53.0,29.93,South,171,0.0,6.0,90,0.01,,---,0.31,77.00,VWS V14.01,2013-06-20 22:50:00,
2013-06-20 15:55:00,55.8,52.9,29.93,SSE,163,0.0,5.0,90,0.02,,---,0.32,63.00,VWS V14.01,2013-06-20 22:55:00,
2013-06-20 16:00:00,55.8,53.2,29.94,East,88,0.0,4.0,91,0.02,,---,0.32,116.00,VWS V14.01,2013-06-20 23:00:00,
2013-06-20 16:05:00,55.7,53.1,29.94,South,177,0.0,7.0,91,0.02,,---,0.32,90.00,VWS V14.01,2013-06-20 23:05:00,
2013-06-20 16:10:00,55.7,53.1,29.94,SSW,205,2.0,6.0,91,0.02,,---,0.32,102.00,VWS V14.01,2013-06-20 23:10:00,
2013-06-20 16:15:00,55.7,53.1,29.94,ESE,111,0.0,6.0,91,0.02,,---,0.32,104.00,VWS V14.01,2013-06-20 23:15:00,
2013-06-20 16:20:00,55.8,52.9,29.95,South,191,4.0,5.0,90,0.02,,---,0.32,90.00,VWS V14.01,2013-06-20 23:20:00,
2013-06-20 16:25:00,55.8,53.2,29.95,South,183,0.0,6.0,91,0.02,,---,0.32,116.00,VWS V14.01,2013-06-20 23:25:00,
2013-06-20 16:30:00,55.9,53.6,29.95,ESE,117,0.0,6.0,92,0.02,,---,0.33,90.00,VWS V14.01,2013-06-20 23:30:00,
2013-06-20 16:35:00,56.0,53.7,29.95,West,260,0.0,4.0,92,0.02,,---,0.33,88.00,VWS V14.01,2013-06-20 23:35:00,
2013-06-20 16:40:00,56.0,53.7,29.96,WSW,256,0.0,4.0,92,0.02,,---,0.33,97.00,VWS V14.01,2013-06-20 23:40:00,
2013-06-20 16:45:00,56.1,53.8,29.96,South,184,6.0,6.0,92,0.03,,---,0.34,74.00,VWS V14.01,2013-06-20 23:45:00,
2013-06-20 16:50:00,56.0,53.7,29.96,South,177,4.0,6.0,92,0.03,,---,0.34,54.00,VWS V14.01,2013-06-20 23:50:00,
2013-06-20 16:55:00,55.9,53.6,29.97,West,259,0.0,6.0,92,0.03,,---,0.34,40.00,VWS V14.01,2013-06-20 23:55:00,
2013-06-20 17:00:00,55.8,53.5,29.97,WNW,292,0.0,6.0,92,0.03,,---,0.35,35.00,VWS V14.01,2013-06-21 00:00:00,
2013-06-20 17:05:00,55.8,53.5,29.97,NNW,335,0.0,4.0,92,0.03,,---,0.35,23.00,VWS V14.01,2013-06-21 00:05:00,
2013-06-20 17:10:00,55.8,53.5,29.97,WSW,248,1.0,3.0,92,0.04,,---,0.36,30.00,VWS V14.01,2013-06-21 00:10:00,
2013-06-20 17:15:00,55.6,53.3,29.97,NW,324,2.0,6.0,92,0.04,,---,0.36,35.00,VWS V14.01,2013-06-21 00:15:00,
2013-06-20 17:20:00,55.4,53.1,29.97,WNW,288,0.0,6.0,92,0.04,,---,0.36,39.00,VWS V14.01,2013-06-21 00:20:00,
2013-06-20 17:25:00,55.3,53.0,29.97,WNW,288,0.0,3.0,92,0.05,,---,0.37,35.00,VWS V14.01,2013-06-21 00:25:00,
2013-06-20 17:30:00,55.1,52.8,29.97,WNW,288,0.0,2.0,92,0.04,,---,0.37,40.00,VWS V14.01,2013-06-21 00:30:00,
2013-06-20 17:35:00,55.0,52.7,29.98,WNW,288,0.0,2.0,92,0.04,,---,0.37,37.00,VWS V14.01,2013-06-21 00:35:00,
2013-06-20 17:40:00,55.1,53.1,29.98,WNW,288,1.0,1.0,93,0.05,,---,0.38,30.00,VWS V14.01,2013-06-21 00:40:00,
2013-06-20 17:45:00,55.1,53.1,29.98,West,270,0.0,3.0,93,0.04,,---,0.38,30.00,VWS V14.01,2013-06-21 00:45:00,
2013-06-20 17:50:00,55.1,53.1,29.98,West,269,0.0,3.0,93,0.04,,---,0.38,28.00,VWS V14.01,2013-06-21 00:50:00,
2013-06-20 17:55:00,55.0,53.0,29.98,WNW,299,2.0,4.0,93,0.04,,---,0.38,30.00,VWS V14.01,2013-06-21 00:55:00,
2013-06-20 18:00:00,55.0,53.0,29.98,WNW,298,0.0,4.0,93,0.04,,---,0.38,49.00,VWS V14.01,2013-06-21 01:00:00,
2013-06-20 18:05:00,55.0,53.0,29.98,WNW,294,1.0,4.0,93,0.03,,---,0.38,51.00,VWS V14.01,2013-06-21 01:05:00,
2013-06-20 18:10:00,54.8,52.5,29.98,WSW,250,0.0,3.0,92,0.02,,---,0.38,28.00,VWS V14.01,2013-06-21 01:10:00,
2013-06-20 18:15:00,54.8,52.8,29.98,WSW,250,0.0,2.0,93,0.03,,---,0.39,21.00,VWS V14.01,2013-06-21 01:15:00,
2013-06-20 18:20:00,54.8,52.8,29.98,WSW,251,0.0,2.0,93,0.03,,---,0.39,14.00,VWS V14.01,2013-06-21 01:20:00,
2013-06-20 18:25:00,54.8,52.8,29.99,WSW,251,0.0,2.0,93,0.02,,---,0.39,14.00,VWS V14.01,2013-06-21 01:25:00,
2013-06-20 18:30:00,54.7,52.7,29.98,WSW,251,0.0,0.0,93,0.02,,---,0.39,12.00,VWS V14.01,2013-06-21 01:30:00,
2013-06-20 18:35:00,54.7,52.7,29.98,WSW,251,0.0,0.0,93,0.03,,---,0.40,9.00,VWS V14.01,2013-06-21 01:35:00,
2013-06-20 18:40:00,54.7,52.7,29.98,WSW,251,0.0,0.0,93,0.02,,---,0.40,9.00,VWS V14.01,2013-06-21 01:40:00,
2013-06-20 18:45:00,54.6,52.9,29.99,WSW,251,0.0,0.0,94,0.02,,---,0.40,14.00,VWS V14.01,2013-06-21 01:45:00,
2013-06-20 18:50:00,54.6,52.6,29.99,WSW,251,0.0,0.0,93,0.02,,---,0.40,16.00,VWS V14.01,2013-06-21 01:50:00,
2013-06-20 18:55:00,54.4,52.4,29.99,WSW,251,0.0,1.0,93,0.03,,---,0.41,12.00,VWS V14.01,2013-06-21 01:55:00,
2013-06-20 19:00:00,54.3,52.6,29.99,WSW,251,0.0,1.0,94,0.03,,---,0.41,11.00,VWS V14.01,2013-06-21 02:00:00,
2013-06-20 19:05:00,54.3,52.6,29.99,NW,305,0.0,2.0,94,0.04,,---,0.42,7.00,VWS V14.01,2013-06-21 02:05:00,
2013-06-20 19:10:00,54.2,52.5,29.99,NW,305,0.0,2.0,94,0.05,,---,0.43,11.00,VWS V14.01,2013-06-21 02:10:00,
2013-06-20 19:15:00,54.1,52.4,30.00,NW,305,0.0,2.0,94,0.05,,---,0.44,9.00,VWS V14.01,2013-06-21 02:15:00,
2013-06-20 19:20:00,53.8,52.1,30.00,NW,306,0.0,2.0,94,0.05,,---,0.44,11.00,VWS V14.01,2013-06-21 02:20:00,
2013-06-20 19:25:00,53.7,52.0,29.99,NW,306,0.0,0.0,94,0.06,,---,0.45,9.00,VWS V14.01,2013-06-21 02:25:00,
2013-06-20 19:30:00,53.6,51.9,29.99,NW,306,0.0,1.0,94,0.07,,---,0.46,11.00,VWS V14.01,2013-06-21 02:30:00,
2013-06-20 19:35:00,53.6,52.2,30.00,East,86,0.0,2.0,95,0.07,,---,0.47,5.00,VWS V14.01,2013-06-21 02:35:00,
2013-06-20 19:40:00,53.5,51.8,30.00,East,86,0.0,0.0,94,0.08,,---,0.48,5.00,VWS V14.01,2013-06-21 02:40:00,
2013-06-20 19:45:00,53.4,52.0,30.00,East,86,0.0,1.0,95,0.08,,---,0.48,5.00,VWS V14.01,2013-06-21 02:45:00,
2013-06-20 19:50:00,53.4,52.0,30.00,East,86,0.0,1.0,95,0.09,,---,0.49,0.00,VWS V14.01,2013-06-21 02:50:00,
2013-06-20 19:55:00,53.3,51.9,30.00,East,86,0.0,1.0,95,0.08,,---,0.49,5.00,VWS V14.01,2013-06-21 02:55:00,
2013-06-20 20:00:00,53.3,51.9,30.00,NNE,16,0.0,2.0,95,0.11,,---,0.52,0.00,VWS V14.01,2013-06-21 03:00:00,
2013-06-20 20:05:00,53.2,51.8,30.01,South,186,2.0,4.0,95,0.13,,---,0.55,0.00,VWS V14.01,2013-06-21 03:05:00,
2013-06-20 20:10:00,53.0,51.6,30.01,NNE,33,0.0,3.0,95,0.16,,---,0.59,5.00,VWS V14.01,2013-06-21 03:10:00,
2013-06-20 20:15:00,52.9,51.5,30.01,West,281,0.0,3.0,95,0.17,,---,0.61,7.00,VWS V14.01,2013-06-21 03:15:00,
2013-06-20 20:20:00,52.8,51.4,30.01,ESE,119,0.0,4.0,95,0.18,,---,0.62,5.00,VWS V14.01,2013-06-21 03:20:00,
2013-06-20 20:25:00,52.8,51.4,30.02,ESE,119,0.0,2.0,95,0.18,,---,0.63,5.00,VWS V14.01,2013-06-21 03:25:00,
2013-06-20 20:30:00,52.8,51.4,30.02,East,90,0.0,2.0,95,0.18,,---,0.64,0.00,VWS V14.01,2013-06-21 03:30:00,
2013-06-20 20:35:00,52.9,51.8,30.02,NNE,13,1.0,3.0,96,0.18,,---,0.65,0.00,VWS V14.01,2013-06-21 03:35:00,
2013-06-20 20:40:00,52.9,51.8,30.02,NNE,25,1.0,4.0,96,0.19,,---,0.67,0.00,VWS V14.01,2013-06-21 03:40:00,
2013-06-20 20:45:00,52.8,51.4,30.02,North,11,0.0,3.0,95,0.22,,---,0.70,0.00,VWS V14.01,2013-06-21 03:45:00,
2013-06-20 20:50:00,52.5,51.1,30.03,East,88,4.0,5.0,95,0.26,,---,0.75,0.00,VWS V14.01,2013-06-21 03:50:00,
2013-06-20 20:55:00,52.1,50.7,30.03,East,97,0.0,6.0,95,0.30,,---,0.79,0.00,VWS V14.01,2013-06-21 03:55:00,
2013-06-20 21:00:00,51.9,50.5,30.02,East,81,0.0,2.0,95,0.31,,---,0.83,0.00,VWS V14.01,2013-06-21 04:00:00,
2013-06-20 21:01:00,51.9,50.5,30.02,East,81,0.0,2.0,95,0.31,,---,0.83,0.00,VWS V14.01,2013-06-21 04:01:00,
2013-06-20 21:06:00,51.8,50.4,30.03,East,81,0.0,1.0,95,0.32,,---,0.88,0.00,VWS V14.01,2013-06-21 04:06:00,
2013-06-20 21:11:00,51.8,50.4,30.03,East,81,0.0,3.0,95,0.32,,---,0.91,0.00,VWS V14.01,2013-06-21 04:11:00,
2013-06-20 21:16:00,51.8,50.7,30.03,East,81,0.0,2.0,96,0.34,,---,0.95,0.00,VWS V14.01,2013-06-21 04:16:00,
2013-06-20 21:21:00,51.7,50.6,30.03,North,9,0.0,4.0,96,0.37,,---,0.99,0.00,VWS V14.01,2013-06-21 04:21:00,
2013-06-20 21:26:00,51.7,50.6,30.03,NNE,15,1.0,3.0,96,0.38,,---,1.02,0.00,VWS V14.01,2013-06-21 04:26:00,
2013-06-20 21:31:00,51.6,50.5,30.03,ESE,108,4.0,4.0,96,0.42,,---,1.06,0.00,VWS V14.01,2013-06-21 04:31:00,
2013-06-20 21:36:00,51.5,50.4,30.04,East,90,2.0,4.0,96,0.44,,---,1.09,0.00,VWS V14.01,2013-06-21 04:36:00,
2013-06-20 21:41:00,51.4,50.3,30.04,NE,43,0.0,4.0,96,0.44,,---,1.11,0.00,VWS V14.01,2013-06-21 04:41:00,
2013-06-20 21:46:00,51.4,50.3,30.04,NNE,28,0.0,4.0,96,0.43,,---,1.14,0.00,VWS V14.01,2013-06-21 04:46:00,
2013-06-20 21:51:00,51.4,50.3,30.04,North,355,0.0,4.0,96,0.41,,---,1.16,0.00,VWS V14.01,2013-06-21 04:51:00,
2013-06-20 21:56:00,51.4,50.3,30.04,North,5,0.0,2.0,96,0.39,,---,1.18,0.00,VWS V14.01,2013-06-21 04:56:00,
2013-06-20 22:01:00,51.4,50.3,30.04,NE,39,0.0,4.0,96,0.37,,---,1.20,0.00,VWS V14.01,2013-06-21 05:01:00,
2013-06-20 22:06:00,51.3,50.2,30.04,NE,39,0.0,4.0,96,0.34,,---,1.21,0.00,VWS V14.01,2013-06-21 05:06:00,
2013-06-20 22:11:00,51.3,50.2,30.05,NE,39,0.0,2.0,96,0.32,,---,1.23,0.00,VWS V14.01,2013-06-21 05:11:00,
2013-06-20 22:17:00,51.2,50.1,30.05,NE,39,0.0,0.0,96,0.29,,---,1.24,0.00,VWS V14.01,2013-06-21 05:17:00,
2013-06-20 22:22:00,51.2,50.1,30.05,NE,39,0.0,0.0,96,0.26,,---,1.24,0.00,VWS V14.01,2013-06-21 05:22:00,
2013-06-20 22:27:00,51.2,50.1,30.04,NE,39,0.0,0.0,96,0.23,,---,1.25,0.00,VWS V14.01,2013-06-21 05:27:00,
2013-06-20 22:32:00,51.3,50.2,30.05,NE,39,0.0,0.0,96,0.21,,---,1.26,0.00,VWS V14.01,2013-06-21 05:32:00,
2013-06-20 22:37:00,51.3,50.2,30.05,NE,39,0.0,0.0,96,0.18,,---,1.26,0.00,VWS V14.01,2013-06-21 05:37:00,
2013-06-20 22:42:00,51.3,50.2,30.05,NE,39,0.0,0.0,96,0.15,,---,1.26,0.00,VWS V14.01,2013-06-21 05:42:00,
2013-06-20 22:47:00,51.3,50.2,30.04,NE,39,0.0,0.0,96,0.12,,---,1.26,0.00,VWS V14.01,2013-06-21 05:47:00,
2013-06-20 22:52:00,51.3,50.2,30.04,NE,39,0.0,0.0,96,0.11,,---,1.27,0.00,VWS V14.01,2013-06-21 05:52:00,
2013-06-20 22:57:00,51.3,50.2,30.04,NE,39,0.0,0.0,96,0.09,,---,1.27,0.00,VWS V14.01,2013-06-21 05:57:00,
2013-06-20 23:02:00,51.3,50.2,30.04,NE,39,0.0,0.0,96,0.07,,---,1.27,0.00,VWS V14.01,2013-06-21 06:02:00,
2013-06-20 23:07:00,51.3,50.2,30.04,NE,39,0.0,0.0,96,0.06,,---,1.27,0.00,VWS V14.01,2013-06-21 06:07:00,
2013-06-20 23:12:00,51.3,50.2,30.04,NE,39,0.0,0.0,96,0.04,,---,1.27,0.00,VWS V14.01,2013-06-21 06:12:00,
2013-06-20 23:17:00,51.3,50.2,30.04,NE,39,0.0,0.0,96,0.03,,---,1.27,0.00,VWS V14.01,2013-06-21 06:17:00,
2013-06-20 23:22:00,51.3,50.2,30.04,NE,39,0.0,0.0,96,0.03,,---,1.27,0.00,VWS V14.01,2013-06-21 06:22:00,
2013-06-20 23:27:00,51.3,50.2,30.04,NE,39,0.0,0.0,96,0.02,,---,1.27,0.00,VWS V14.01,2013-06-21 06:27:00,
2013-06-20 23:32:00,51.3,50.2,30.05,NE,39,0.0,0.0,96,0.01,,---,1.27,0.00,VWS V14.01,2013-06-21 06:32:00,
2013-06-20 23:37:00,51.2,50.1,30.05,NE,39,0.0,0.0,96,0.01,,---,1.27,0.00,VWS V14.01,2013-06-21 06:37:00,
2013-06-20 23:42:00,51.2,50.1,30.04,NE,39,0.0,0.0,96,0.01,,---,1.27,0.00,VWS V14.01,2013-06-21 06:42:00,
2013-06-20 23:47:00,51.2,50.1,30.04,NE,39,0.0,0.0,96,0.01,,---,1.27,0.00,VWS V14.01,2013-06-21 06:47:00,
2013-06-20 23:52:00,51.2,50.1,30.04,NE,39,0.0,0.0,96,0.01,,---,1.28,0.00,VWS V14.01,2013-06-21 06:52:00,
2013-06-20 23:57:00,51.2,50.1,30.04,NE,39,0.0,0.0,96,0.01,,---,1.28,0.00,VWS V14.01,2013-06-21 06:57:00,